Change the Weather History Date:

Tuesday, December 4, 2012

  Actual Average Record
Temperature  
Mean Temperature 25 °F 15 °F  
Max Temperature 32 °F 25 °F 36 °F (2014)
Min Temperature 18 °F 5 °F -18 °F (2013)
Degree Days  
Heating Degree Days 40 50  
Month to date heating degree days 157 197  
Since 1 July heating degree days 3254 3517  
Cooling Degree Days 0 0  
Month to date cooling degree days 0 0  
Year to date cooling degree days 1 0  
Moisture  
Dew Point 22 °F    
Average Humidity 92    
Maximum Humidity 100    
Minimum Humidity 84    
Precipitation  
Precipitation 0.15 in 0.05 in 0.20 in (2007)
Month to date precipitation 1.49 0.21  
Year to date precipitation 21.85 19.01  
Sea Level Pressure  
Sea Level Pressure 30.31 in    
Wind  
Wind Speed 0 mph (North)    
Max Wind Speed 5 mph    
Max Gust Speed 8 mph    
T = Trace of Precipitation, MM = Missing Value Source: NWS Daily Summary

Daily Weather History Graph

Daily Weather History Graph

Search for Another Location

Airport or City:

Trip Planner

Search our weather history database for the weather conditions in past years. The results will help you decide how hot, cold, wet, or windy it might be!

Date:

Astronomy

Dec. 04, 2012 Rise Set
Actual Time 7:42 AM MST 4:42 PM MST
Civil Twilight 7:09 AM MST 5:15 PM MST
Nautical Twilight 6:32 AM MST 5:51 PM MST
Astronomical Twilight 5:57 AM MST 6:26 PM MST
Moon 10:42 PM MST (12/4) 11:29 AM MST (12/4)
Length of Visible Light 10h 06m
Length of Day
9h 00m
Waning Gibbous, 69% of the Moon is Illuminated
Dec 4
Waning Gibbous
Dec 6
Last Quarter
Dec 13
New
Dec 19
First Quarter
Dec 28
Full

Hourly Weather History & Observations

Time (MST) Temp. Windchill Dew Point Humidity Pressure Visibility Wind Dir Wind Speed Gust Speed Precip Events Conditions
12:56 AM 21.9 °F - 18.0 °F 85% 30.35 in - Calm Calm - N/A   Unknown
1:56 AM 21.0 °F - 18.0 °F 88% 30.35 in - Calm Calm - N/A   Unknown
2:56 AM 19.9 °F - 17.1 °F 89% 30.37 in - Calm Calm - N/A   Unknown
3:56 AM 19.0 °F - 15.1 °F 85% 30.35 in - Calm Calm - N/A   Unknown
4:56 AM 19.9 °F - 16.0 °F 85% 30.34 in - Calm Calm - N/A   Unknown
5:56 AM 19.9 °F - 16.0 °F 85% 30.34 in - Calm Calm - N/A   Unknown
6:56 AM 19.9 °F - 17.1 °F 89% 30.33 in - Calm Calm - N/A   Unknown
7:56 AM 21.0 °F 16.2 °F 17.1 °F 85% 30.35 in - Variable 3.5 mph - N/A   Unknown
8:56 AM 21.9 °F 17.2 °F 19.0 °F 89% 30.35 in - Variable 3.5 mph - 0.02 in   Unknown
9:56 AM 23.0 °F - 19.0 °F 85% 30.36 in - Calm Calm - 0.01 in   Unknown
10:56 AM 24.1 °F - 21.0 °F 88% 30.35 in - Calm Calm - N/A   Unknown
11:56 AM 25.0 °F - 21.9 °F 88% 30.33 in - Calm Calm - 0.03 in   Unknown
12:56 PM 26.1 °F - 23.0 °F 88% 30.34 in - Calm Calm - 0.01 in   Unknown
1:56 PM 27.0 °F - 24.1 °F 89% 30.32 in - Calm Calm - N/A   Unknown
2:56 PM 28.0 °F - 25.0 °F 88% 30.31 in - Calm Calm - N/A   Unknown
4:56 PM 28.0 °F - 27.0 °F 96% 30.31 in - Calm Calm - 0.02 in   Unknown
5:56 PM 28.9 °F - 27.0 °F 92% 30.28 in - Calm Calm - 0.02 in   Unknown
6:56 PM 28.9 °F 25.2 °F 27.0 °F 92% 30.27 in - Variable 3.5 mph - 0.01 in   Unknown
7:56 PM 30.0 °F - 28.0 °F 92% 30.26 in - Calm Calm - N/A   Unknown
8:56 PM 30.9 °F - 28.0 °F 89% 30.26 in - Calm Calm - N/A   Unknown
9:56 PM 30.0 °F - 28.9 °F 96% 30.23 in - Calm Calm - 0.01 in   Unknown
10:56 PM 30.9 °F - 30.0 °F 96% 30.20 in - Calm Calm - 0.01 in   Unknown
11:56 PM 32.0 °F - 30.0 °F 92% 30.18 in - Calm Calm - 0.01 in   Unknown